Lexington Weather

Lexington, Massachusetts, USA

68°F
7/3/2020 12:35pm 
  • Lexington Conditions: Overcast
  • Temperature: 67.8°F / 19.9°CColder 1.3°F than last hour.
  • Dew Point: 63.9°FDecreased 1.4°Fsince last hour.
  • Relative Humidity: 87%Decreased 1.0% since last hour.
  • Wind: Wind from NNW NNW 2 mph, 10-min avg: 1 mph, gust: 3 mph
  • Barometer: 29.86 in Steady
  • Visibility: 10 miles
  • Rain Today: 0.00 in
  •   

Regional Weather Roundup
for Boston / Norton, MA

        
000
ASUS41 KBOX 281604
RWRBOX

REGIONAL WEATHER ROUNDUP
NATIONAL WEATHER SERVICE BOSTON/NORTON MA
1200 PM EDT SUN JUN 28 2020

NOTE:  "FAIR" INDICATES FEW OR NO CLOUDS BELOW 12,000 FEET WITH NO 
SIGNIFICANT WEATHER AND/OR OBSTRUCTIONS TO VISIBILITY.

MAZALL-281700-
EASTERN MASSACHUSETTS
  
CITY           SKY/WX    TMP DP  RH WIND       PRES   REMARKS
BOSTON         NOT AVBL                                               
BEVERLY        PTSUNNY   78  66  66 SE10      29.74R                  
LAWRENCE       PTSUNNY   83  66  56 VRB3      29.75F                  
BEDFORD        PTSUNNY   84  65  52 SW9       29.73S                  
BLUE HILL        N/A     79  67  66 SW8       29.76S                  
NORWOOD        MOSUNNY   85  68  56 VRB6      29.74S                  
MARSHFIELD     PTSUNNY   81  70  69 SE8       29.75S                  
PLYMOUTH       MOSUNNY   81  67  62 SW7       29.76S                  
TAUNTON        SUNNY     83  68  60 S6        29.75S                  
NEW BEDFORD    MOSUNNY   82  69  64 VRB7      29.76S                  
$$

MAZALL-281700-
CAPE COD AND THE ISLANDS
  
CITY           SKY/WX    TMP DP  RH WIND       PRES   REMARKS
FALMOUTH       SUNNY     81  66  61 SW9       29.78S                  
HYANNIS        PTSUNNY   78  68  71 S7        29.76S                  
CHATHAM        SUNNY     77  67  71 SW8       29.79S                  
PROVINCETOWN   CLOUDY    78  66  66 S8        29.77F                  
NANTUCKET      MOSUNNY   71  66  84 S7        29.79S                  
MARTHAS VNYRD  MOSUNNY   78  67  68 S7        29.78S                  
$$
 
MAZALL-281700-
CENTRAL AND WESTERN MASSACHUSETTS
  
CITY           SKY/WX    TMP DP  RH WIND       PRES   REMARKS
WORCESTER      MOSUNNY   80  65  59 NW9       29.79S                  
FITCHBURG      PTSUNNY   83  64  52 W8        29.76R                  
ORANGE         PTSUNNY   79  64  60 S3        29.77F                  
SPRINGFIELD    PTSUNNY   80  66  62 SW3       29.75S                  
WESTFIELD      CLOUDY    78  69  73 SE3       29.75F                  
NORTH ADAMS    CLOUDY    73  67  81 E3        29.76F                  
PITTSFIELD     CLOUDY    76  67  73 CALM      29.77S                  
$$
 
RIZALL-281700-
RHODE ISLAND
  
CITY           SKY/WX    TMP DP  RH WIND       PRES   REMARKS
PROVIDENCE     PTSUNNY   81  70  69 SE13      29.76F                  
NEWPORT        MOSUNNY   78  66  66 S8        29.77S                  
BLOCK ISLAND   MOSUNNY   76  69  79 S9        29.78S                  
SMITHFIELD     PTSUNNY   80  70  71 SW5       29.77F                  
WESTERLY       MOSUNNY   79  66  64 SE7       29.77F                  
$$
 
CTZALL-281700-
CONNECTICUT
  
CITY           SKY/WX    TMP DP  RH WIND       PRES   REMARKS
BRADLEY INTL   PTSUNNY   80  66  62 SW5       29.75S                  
HARTFORD       MOSUNNY   83  70  64 S8        29.74F                  
BRIDGEPORT     MOSUNNY   75  69  81 E6        29.76S                  
DANBURY        PTSUNNY   81  66  60 W6        29.77S                  
GROTON         SUNNY     76  70  82 SE7       29.76S                  
NEW HAVEN      SUNNY     81  72  74 S6        29.75F                  
CHESTER        NOT AVBL                                               
MERIDEN        MOSUNNY   84  68  58 VRB3      29.75S                  
WILLIMANTIC    PTSUNNY   80  69  69 S7        29.76S                  
OXFORD         MOSUNNY   79  68  69 NW3       29.78F                  
$$

MEZ002-015-021-024-NHZ003-005-008-011-012-014-VTZ005-008-281700-
NORTHERN NEW ENGLAND
  
CITY           SKY/WX    TMP DP  RH WIND       PRES   REMARKS
PORTLAND ME    PTSUNNY   76  62  62 E14       29.75S                  
BANGOR ME      MOSUNNY   79  60  52 CALM      29.75F                  
CONCORD NH     PTSUNNY   81  64  56 CALM      29.74F                  
MANCHESTER NH  PTSUNNY   80  64  58 SW5       29.73S                  
NASHUA NH      LGT RAIN  78  70  76 CALM      29.75S                  
PORTSMOUTH NH  PTSUNNY   80  64  56 S8        29.73S                  
JAFFREY NH     CLOUDY    71  65  81 SW5       29.79S                  
KEENE NH       CLOUDY    75  66  73 S6        29.77S                  
BURLINGTON VT  CLOUDY    78  65  63 SW6       29.72F                  
MT. WASHINGTON FOG       57  57 100 W10         N/A  VSB 1/8          
$$

NYZ052-076-281700-
EASTERN NEW YORK
  
CITY           SKY/WX    TMP DP  RH WIND       PRES   REMARKS
ALBANY         CLOUDY    71  66  84 VRB5      29.75F HAZE             
NEW YORK CITY  PTSUNNY   88  65  46 E7        29.73F HX  90           
$$
 
ANZALL-281700-
MARINE OBSERVATIONS
  
STATION/POSITION TIME  TEMP    WIND        PRES    VSBY  WAVE
                       AIR SEA DIR/SP/G                  HT/PER
                 (UTC) (F)     (DEG/KT/KT) (MB)    (MI)  (FT/S)
BOSTON BUOY      1550   69 69  130/ 10/ 12 1006.6S         1/ 7
BUZZARDS BAY     1500          180/  5/  5 1009.4F
NANTUCKET SOUND  1550   68 70  190/  8/ 10 1007.8F         1
MASS BAY-STELLWA NOT AVBL
ISLE OF SHOALS   1500   69     150/  8/  8 1007.0S
S OF BLOCK IS    1526      70                N/A           4/ 7
$$

......................KEY.........................
  SKY/WX - SKY CONDITION/PRESENT WEATHER
  TMP    - TEMPERATURE IN FAHRENHEIT
  DWPT   - DEWPOINT IN FAHRENHEIT
  RH     - RELATIVE HUMIDITY IN PERCENT
  WIND   - DIRECTION AND SPEED IN MPH
  PRES   - MEAN SEA LEVEL PRESSURE IN INCHES OF HG
  WCI    - WIND CHILL INDEX
  VSB    - VISIBILITY IN MILES
  HX     - HEAT INDEX
  TC     - TEMPERATURE IN CELSIUS
  VRB    - VARIABLE WIND DIRECTION
  N/A    - NOT AVAILABLE
  
      

Other recent Regional Weather Roundups

Fri Jul 3, 12:04pm

Fri Jul 3, 11:04am

Fri Jul 3, 10:04am

Fri Jul 3, 9:04am

Fri Jul 3, 8:04am

Fri Jul 3, 7:04am

Fri Jul 3, 6:04am

Fri Jul 3, 5:04am

Fri Jul 3, 4:04am

Fri Jul 3, 3:04am

Fri Jul 3, 2:04am

Fri Jul 3, 1:04am

Fri Jul 3, 12:04am

Thu Jul 2, 11:05pm

Thu Jul 2, 10:04pm

Thu Jul 2, 9:04pm

Thu Jul 2, 8:04pm

Thu Jul 2, 7:05pm

Thu Jul 2, 6:04pm

Thu Jul 2, 5:05pm

Thu Jul 2, 4:04pm

Thu Jul 2, 3:04pm

Thu Jul 2, 2:04pm

Thu Jul 2, 1:05pm

Thu Jul 2, 12:04pm

Thu Jul 2, 11:04am

Thu Jul 2, 10:05am

Thu Jul 2, 9:05am

Thu Jul 2, 8:04am

Thu Jul 2, 7:04am

Thu Jul 2, 6:05am

Thu Jul 2, 5:04am

Thu Jul 2, 4:04am

Thu Jul 2, 3:04am

Thu Jul 2, 2:04am

Thu Jul 2, 1:04am

Thu Jul 2, 12:05am

Wed Jul 1, 11:05pm

Wed Jul 1, 10:04pm

Wed Jul 1, 9:04pm

Wed Jul 1, 8:04pm

Wed Jul 1, 7:04pm

Wed Jul 1, 6:04pm

Wed Jul 1, 5:05pm

Wed Jul 1, 4:04pm

Wed Jul 1, 3:04pm

Wed Jul 1, 2:04pm

Wed Jul 1, 1:04pm

Wed Jul 1, 12:04pm

Wed Jul 1, 11:04am

Wed Jul 1, 10:04am

Wed Jul 1, 9:04am

Wed Jul 1, 8:05am

Wed Jul 1, 7:04am

Wed Jul 1, 6:04am

Wed Jul 1, 5:04am

Wed Jul 1, 4:04am

Wed Jul 1, 3:04am

Wed Jul 1, 2:04am

Wed Jul 1, 1:04am

Wed Jul 1, 12:04am

Tue Jun 30, 11:04pm

Tue Jun 30, 10:05pm

Tue Jun 30, 9:04pm

Tue Jun 30, 8:05pm

Tue Jun 30, 7:05pm

Tue Jun 30, 6:04pm

Tue Jun 30, 5:04pm

Tue Jun 30, 4:04pm

Tue Jun 30, 3:04pm

Tue Jun 30, 2:04pm

Tue Jun 30, 1:04pm

Tue Jun 30, 12:04pm

Tue Jun 30, 11:04am

Tue Jun 30, 10:04am

Tue Jun 30, 9:04am

Tue Jun 30, 8:04am

Tue Jun 30, 7:04am

Tue Jun 30, 6:04am

Tue Jun 30, 5:04am

Tue Jun 30, 4:04am

Tue Jun 30, 3:04am

Tue Jun 30, 2:04am

Tue Jun 30, 1:04am

Tue Jun 30, 12:04am

Mon Jun 29, 11:04pm

Mon Jun 29, 10:05pm

Mon Jun 29, 9:04pm

Mon Jun 29, 8:05pm

Mon Jun 29, 7:04pm

Mon Jun 29, 6:04pm

Mon Jun 29, 5:04pm

Mon Jun 29, 4:05pm

Mon Jun 29, 3:04pm

Mon Jun 29, 2:04pm

Mon Jun 29, 1:04pm

Mon Jun 29, 12:04pm

Mon Jun 29, 11:04am

Mon Jun 29, 10:04am

Mon Jun 29, 9:04am

Mon Jun 29, 8:04am

Mon Jun 29, 7:04am

Mon Jun 29, 6:04am

Mon Jun 29, 5:04am

Mon Jun 29, 4:04am

Mon Jun 29, 3:04am

Mon Jun 29, 2:04am

Mon Jun 29, 1:04am

Mon Jun 29, 12:04am

Sun Jun 28, 11:05pm

Sun Jun 28, 10:04pm

Sun Jun 28, 9:05pm

Sun Jun 28, 8:04pm

Sun Jun 28, 7:04pm

Sun Jun 28, 6:04pm

Sun Jun 28, 5:04pm

Sun Jun 28, 4:04pm

Sun Jun 28, 3:04pm

Sun Jun 28, 2:05pm

Sun Jun 28, 1:04pm

Sun Jun 28, 11:04am

Sun Jun 28, 10:04am

Sun Jun 28, 9:04am

Sun Jun 28, 8:04am

Sun Jun 28, 7:04am

Sun Jun 28, 6:04am

Sun Jun 28, 5:04am

Sun Jun 28, 4:04am

Sun Jun 28, 3:04am

Sun Jun 28, 2:05am

Sun Jun 28, 1:04am

Sun Jun 28, 12:05am

Sat Jun 27, 11:04pm

Sat Jun 27, 10:04pm

Sat Jun 27, 9:04pm

Sat Jun 27, 8:04pm

Sat Jun 27, 7:04pm

Sat Jun 27, 6:04pm

Sat Jun 27, 5:04pm

Sat Jun 27, 4:05pm

Sat Jun 27, 3:04pm

Sat Jun 27, 2:04pm

Sat Jun 27, 1:05pm

Sat Jun 27, 12:04pm

Sat Jun 27, 11:04am

Sat Jun 27, 10:04am

Sat Jun 27, 9:04am

Sat Jun 27, 8:04am

Sat Jun 27, 7:04am

Sat Jun 27, 6:04am

Sat Jun 27, 5:05am

Sat Jun 27, 4:04am

Sat Jun 27, 3:04am

Sat Jun 27, 2:04am

Sat Jun 27, 1:04am

Sat Jun 27, 12:04am

Fri Jun 26, 11:04pm

Fri Jun 26, 10:04pm

Fri Jun 26, 9:05pm

Fri Jun 26, 8:04pm

Fri Jun 26, 7:05pm

Fri Jun 26, 6:04pm

Fri Jun 26, 5:04pm

Fri Jun 26, 4:04pm

Fri Jun 26, 3:04pm

Fri Jun 26, 2:05pm

Fri Jun 26, 1:04pm

Meta data:

ID: e5808144-1ee8-4ac3-b414-5696c70bcaad
Link: https://api.weather.gov/products/e5808144-1ee8-4ac3-b414-5696c70bcaad